Location: アルンシュタイン
(50.0000°N, 10.0000°E)
Time: 19:39:41
(UTC+02:00)

S-56A Canister/Altair - All Passes

Search period start: 11 September 2024 00:00
Search period end: 21 September 2024 00:00
Orbit: 637 x 2487 km, 38.9° (Epoch: 10 September)

Date Brightness Start Highest point End Pass type
(mag) Time Alt. Az. Time Alt. Az. Time Alt. Az.
11 Sep - 00:19:40 10° WSW 00:28:15 44° S 00:40:20 10° ESE visible
11 Sep - 02:23:27 10° W 02:32:39 31° SSW 02:44:14 10° SSE visible
11 Sep - 04:31:11 10° WSW 04:36:30 13° SW 04:42:13 10° SSW visible
11 Sep - 19:44:25 10° S 19:47:59 15° SE 19:52:15 10° ESE daylight
11 Sep - 21:43:52 10° SW 21:50:21 36° SSE 21:59:38 10° E visible
11 Sep - 23:46:02 10° WSW 23:54:04 44° S 00:05:34 10° ESE visible
12 Sep - 01:49:30 10° W 01:58:22 33° SSW 02:09:51 10° SSE visible
12 Sep - 03:56:09 10° WSW 04:02:19 15° SW 04:09:08 10° SSW visible
12 Sep - 19:12:23 10° SSE 19:14:22 11° SE 19:16:33 10° ESE daylight
12 Sep - 21:10:33 10° SW 21:16:29 32° SSE 21:24:50 10° E visible
12 Sep - 23:12:27 10° WSW 23:19:57 43° S 23:30:48 10° ESE visible
13 Sep - 01:15:39 10° W 01:24:07 34° SSW 01:35:23 10° SE visible
13 Sep - 03:21:29 10° WSW 03:28:07 17° SW 03:35:41 10° S night (unlit)
13 Sep - 20:37:19 10° SSW 20:42:41 28° SSE 20:50:03 10° E visible
13 Sep - 22:38:55 10° WSW 22:45:54 41° S 22:56:02 10° ESE visible
14 Sep - 00:41:53 10° WSW 00:49:54 35° SSW 01:00:50 10° SE visible
14 Sep - 02:47:04 10° WSW 02:53:55 18° SW 03:01:58 10° S night (unlit)
14 Sep - 20:04:09 10° SSW 20:08:57 24° SSE 20:15:18 10° ESE visible
14 Sep - 22:05:26 10° WSW 22:11:54 39° S 22:21:18 10° ESE visible
15 Sep - 00:08:10 10° WSW 00:15:44 35° SSW 00:26:15 10° SE visible
15 Sep - 02:12:50 10° WSW 02:19:44 20° SSW 02:28:02 10° S night (unlit)
15 Sep - 19:31:05 10° SSW 19:35:16 21° SSE 19:40:34 10° ESE daylight
15 Sep - 21:32:00 10° WSW 21:37:59 37° S 21:46:35 10° ESE visible
15 Sep - 23:34:32 10° WSW 23:41:38 35° SSW 23:51:39 10° SE visible
16 Sep - 01:38:45 10° WSW 01:45:34 21° SSW 01:54:00 10° S visible
16 Sep - 18:58:09 10° S 19:01:37 17° SSE 19:05:47 10° ESE daylight
16 Sep - 20:58:37 10° SW 21:04:07 34° SSE 21:11:55 10° ESE visible
16 Sep - 23:00:56 10° WSW 23:07:35 35° S 23:17:01 10° SE visible
17 Sep - 01:04:48 10° WSW 01:11:25 22° SSW 01:19:50 10° SSE visible
17 Sep - 18:25:27 10° S 18:28:00 13° SE 18:30:53 10° ESE daylight
17 Sep - 20:25:15 10° SW 20:30:19 31° SSE 20:37:18 10° ESE visible
17 Sep - 22:27:22 10° WSW 22:33:35 35° S 22:42:25 10° SE visible
18 Sep - 00:30:56 10° WSW 00:37:19 23° SSW 00:45:34 10° SSE visible
18 Sep - 17:53:31 10° SSE 17:54:24 10° SE 17:55:17 10° SE daylight
18 Sep - 19:51:55 10° SW 19:56:34 28° SSE 20:02:45 10° ESE visible
18 Sep - 21:53:52 10° WSW 21:59:39 34° S 22:07:50 10° SE visible
18 Sep - 23:57:09 10° WSW 00:03:15 24° SSW 00:11:15 10° SSE visible
19 Sep - 19:18:38 10° SW 19:22:51 25° SSE 19:28:15 10° ESE daylight
19 Sep - 21:20:23 10° WSW 21:25:45 33° S 21:33:17 10° ESE visible
19 Sep - 23:23:26 10° WSW 23:29:14 24° SSW 23:36:54 10° SSE visible
20 Sep - 18:45:23 10° SSW 18:49:10 22° SSE 18:53:48 10° ESE daylight
20 Sep - 20:46:55 10° WSW 20:51:55 31° S 20:58:47 10° ESE visible
20 Sep - 22:49:47 10° WSW 22:55:15 24° SSW 23:02:32 10° SSE visible
